• In Deutschland
  • Länderverzeichnis
  • Für 7 Tage
  • Wassertemperatur
  • Satellitenkarten
  • Wetterkarte
  • Widgets
  • user-avatar
    Anmelden

    Stündliche Wetter Lemnos

    Heute, 16 August, Donnerstag

    Zeit Temperatur Niederschläge Wind Luftdruck Luftfeuchtigkeit
    00:00 +28°C° 0 mm 5 m/S 755 mmHg 61%
    01:00 +28°C° 0 mm 5 m/S 755 mmHg 64%
    02:00 +28°C° 0 mm 5 m/S 755 mmHg 66%
    03:00 +28°C° 0 mm 5 m/S 755 mmHg 67%
    04:00 +27°C° 0 mm 5 m/S 755 mmHg 68%
    05:00 +27°C° 0 mm 6 m/S 755 mmHg 69%
    06:00 +28°C° 0 mm 6 m/S 755 mmHg 63%
    07:00 +28°C° 0 mm 6 m/S 755 mmHg 57%
    08:00 +29°C° 0 mm 7 m/S 755 mmHg 48%
    09:00 +29°C° 0 mm 6 m/S 755 mmHg 45%
    10:00 +30°C° 0 mm 6 m/S 755 mmHg 42%
    11:00 +32°C° 0 mm 5 m/S 755 mmHg 39%
    12:00 +33°C° 0 mm 5 m/S 755 mmHg 38%
    13:00 +33°C° 0 mm 5 m/S 754 mmHg 38%
    14:00 +33°C° 0 mm 5 m/S 754 mmHg 36%
    15:00 +33°C° 0 mm 5 m/S 754 mmHg 37%
    16:00 +33°C° 0 mm 5 m/S 754 mmHg 37%
    17:00 +33°C° 0 mm 5 m/S 754 mmHg 38%
    18:00 +33°C° 0 mm 5 m/S 754 mmHg 42%
    19:00 +32°C° 0 mm 5 m/S 754 mmHg 45%
    20:00 +30°C° 0 mm 5 m/S 754 mmHg 49%
    21:00 +30°C° 0,1 mm 5 m/S 754 mmHg 48%
    22:00 +30°C° 0,1 mm 4 m/S 754 mmHg 48%
    23:00 +29°C° 0,1 mm 4 m/S 754 mmHg 48%

    Morgen, 17 August, Freitag

    Zeit Temperatur Niederschläge Wind Luftdruck Luftfeuchtigkeit
    00:00 +29°C° 0 mm 4 m/S 754 mmHg 52%
    01:00 +29°C° 0 mm 4 m/S 754 mmHg 56%
    02:00 +28°C° 0 mm 4 m/S 754 mmHg 61%
    03:00 +28°C° 0 mm 5 m/S 754 mmHg 64%
    04:00 +28°C° 0 mm 5 m/S 754 mmHg 68%
    05:00 +27°C° 0 mm 5 m/S 754 mmHg 71%
    06:00 +28°C° 0 mm 5 m/S 754 mmHg 67%
    07:00 +28°C° 0 mm 5 m/S 755 mmHg 62%
    08:00 +29°C° 0 mm 5 m/S 755 mmHg 57%
    09:00 +30°C° 0 mm 5 m/S 755 mmHg 52%
    10:00 +30°C° 0 mm 4 m/S 755 mmHg 48%
    11:00 +32°C° 0 mm 4 m/S 755 mmHg 43%
    12:00 +33°C° 0 mm 4 m/S 755 mmHg 42%
    13:00 +34°C° 0 mm 4 m/S 755 mmHg 41%
    14:00 +34°C° 0 mm 4 m/S 754 mmHg 40%
    15:00 +34°C° 0 mm 4 m/S 754 mmHg 39%
    16:00 +34°C° 0 mm 5 m/S 754 mmHg 38%
    17:00 +34°C° 0 mm 5 m/S 754 mmHg 37%
    18:00 +33°C° 0,1 mm 5 m/S 754 mmHg 40%
    19:00 +32°C° 0,1 mm 5 m/S 754 mmHg 43%
    20:00 +32°C° 0,1 mm 4 m/S 754 mmHg 46%
    21:00 +30°C° 0 mm 4 m/S 754 mmHg 46%
    22:00 +30°C° 0 mm 4 m/S 754 mmHg 46%
    23:00 +30°C° 0 mm 4 m/S 755 mmHg 46%

    übermorgen, 18 August, Samstag

    Zeit Temperatur Niederschläge Wind Luftdruck Luftfeuchtigkeit
    00:00 +30°C° 0 mm 4 m/S 755 mmHg 50%
    01:00 +29°C° 0 mm 5 m/S 755 mmHg 55%
    02:00 +29°C° 0 mm 5 m/S 755 mmHg 59%
    03:00 +29°C° 0 mm 5 m/S 755 mmHg 60%
    04:00 +28°C° 0 mm 6 m/S 755 mmHg 60%
    05:00 +28°C° 0 mm 6 m/S 755 mmHg 61%
    06:00 +29°C° 0 mm 6 m/S 755 mmHg 57%
    07:00 +29°C° 0 mm 6 m/S 755 mmHg 54%
    08:00 +29°C° 0 mm 6 m/S 755 mmHg 50%
    09:00 +32°C° 0 mm 6 m/S 755 mmHg 46%
    10:00 +33°C° 0 mm 5 m/S 756 mmHg 41%
    11:00 +34°C° 0 mm 5 m/S 756 mmHg 37%
    12:00 +34°C° 0 mm 5 m/S 755 mmHg 35%
    13:00 +34°C° 0 mm 5 m/S 755 mmHg 34%
    14:00 +35°C° 0 mm 4 m/S 755 mmHg 33%
    15:00 +35°C° 0 mm 5 m/S 754 mmHg 33%
    16:00 +35°C° 0 mm 5 m/S 754 mmHg 33%
    17:00 +35°C° 0 mm 6 m/S 754 mmHg 34%
    18:00 +34°C° 0 mm 6 m/S 754 mmHg 36%
    19:00 +33°C° 0 mm 6 m/S 754 mmHg 39%
    20:00 +32°C° 0 mm 6 m/S 755 mmHg 42%
    21:00 +32°C° 0 mm 6 m/S 755 mmHg 45%
    22:00 +32°C° 0 mm 6 m/S 755 mmHg 48%
    23:00 +30°C° 0 mm 6 m/S 755 mmHg 51%

    19 August, Sonntag

    Zeit Temperatur Niederschläge Wind Luftdruck Luftfeuchtigkeit
    00:00 +30°C° 0 mm 7 m/S 755 mmHg 55%
    01:00 +29°C° 0 mm 7 m/S 755 mmHg 58%
    02:00 +29°C° 0 mm 7 m/S 755 mmHg 61%
    03:00 +28°C° 0 mm 7 m/S 755 mmHg 60%
    04:00 +28°C° 0 mm 8 m/S 755 mmHg 59%
    05:00 +28°C° 0 mm 8 m/S 755 mmHg 58%
    06:00 +29°C° 0 mm 8 m/S 755 mmHg 54%
    07:00 +29°C° 0 mm 8 m/S 755 mmHg 50%
    08:00 +31°C° 0 mm 8 m/S 755 mmHg 47%
    09:00 +32°C° 0 mm 8 m/S 755 mmHg 42%
    10:00 +33°C° 0 mm 8 m/S 755 mmHg 38%
    11:00 +34°C° 0 mm 7 m/S 755 mmHg 33%
    12:00 +34°C° 0 mm 7 m/S 755 mmHg 33%
    13:00 +34°C° 0 mm 7 m/S 755 mmHg 33%
    14:00 +35°C° 0 mm 6 m/S 754 mmHg 33%
    15:00 +35°C° 0 mm 6 m/S 754 mmHg 32%
    16:00 +35°C° 0 mm 6 m/S 754 mmHg 31%
    17:00 +35°C° 0 mm 6 m/S 754 mmHg 31%
    18:00 +34°C° 0 mm 6 m/S 754 mmHg 33%
    19:00 +33°C° 0 mm 7 m/S 754 mmHg 36%
    20:00 +33°C° 0 mm 7 m/S 754 mmHg 39%
    21:00 +32°C° 0 mm 7 m/S 755 mmHg 43%
    22:00 +32°C° 0 mm 8 m/S 755 mmHg 48%
    23:00 +31°C° 0 mm 8 m/S 755 mmHg 52%

    20 August, Montag

    Zeit Temperatur Niederschläge Wind Luftdruck Luftfeuchtigkeit
    00:00 +31°C° 0 mm 8 m/S 755 mmHg 55%
    01:00 +29°C° 0 mm 9 m/S 755 mmHg 57%
    02:00 +28°C° 0 mm 9 m/S 755 mmHg 60%
    03:00 +28°C° 0 mm 9 m/S 754 mmHg 59%
    04:00 +28°C° 0 mm 9 m/S 754 mmHg 57%
    05:00 +28°C° 0 mm 9 m/S 754 mmHg 55%
    06:00 +28°C° 0 mm 10 m/S 755 mmHg 54%
    07:00 +29°C° 0 mm 10 m/S 755 mmHg 53%
    08:00 +29°C° 0 mm 10 m/S 755 mmHg 52%
    09:00 +29°C° 0 mm 9 m/S 755 mmHg 50%
    10:00 +31°C° 0 mm 9 m/S 755 mmHg 47%
    11:00 +31°C° 0 mm 8 m/S 756 mmHg 45%
    12:00 +32°C° 0 mm 8 m/S 755 mmHg 43%
    13:00 +33°C° 0 mm 7 m/S 755 mmHg 42%
    14:00 +33°C° 0 mm 6 m/S 755 mmHg 40%
    15:00 +33°C° 0 mm 6 m/S 755 mmHg 39%
    16:00 +34°C° 0 mm 6 m/S 755 mmHg 38%
    17:00 +34°C° 0 mm 6 m/S 755 mmHg 38%
    18:00 +33°C° 0 mm 7 m/S 755 mmHg 40%
    19:00 +32°C° 0 mm 8 m/S 755 mmHg 42%
    20:00 +32°C° 0 mm 8 m/S 755 mmHg 44%
    21:00 +31°C° 0 mm 9 m/S 756 mmHg 47%
    22:00 +29°C° 0 mm 9 m/S 756 mmHg 51%
    23:00 +29°C° 0 mm 9 m/S 756 mmHg 55%

    21 August, Dienstag

    Zeit Temperatur Niederschläge Wind Luftdruck Luftfeuchtigkeit
    00:00 +29°C° 0 mm 10 m/S 756 mmHg 57%
    01:00 +28°C° 0 mm 10 m/S 756 mmHg 58%
    02:00 +28°C° 0 mm 10 m/S 756 mmHg 60%
    03:00 +27°C° 0 mm 10 m/S 756 mmHg 60%
    04:00 +27°C° 0 mm 10 m/S 756 mmHg 61%
    05:00 +27°C° 0 mm 11 m/S 756 mmHg 61%
    06:00 +28°C° 0 mm 11 m/S 756 mmHg 58%
    07:00 +28°C° 0 mm 11 m/S 757 mmHg 55%
    08:00 +29°C° 0 mm 11 m/S 757 mmHg 52%
    09:00 +29°C° 0 mm 10 m/S 757 mmHg 50%
    10:00 +29°C° 0 mm 10 m/S 757 mmHg 49%
    11:00 +31°C° 0 mm 9 m/S 757 mmHg 47%
    12:00 +31°C° 0 mm 8 m/S 757 mmHg 45%
    13:00 +30°C° 0 mm 7 m/S 757 mmHg 43%
    14:00 +32°C° 0 mm 6 m/S 756 mmHg 41%
    15:00 +32°C° 0 mm 6 m/S 756 mmHg 40%
    16:00 +32°C° 0 mm 5 m/S 756 mmHg 39%
    17:00 +33°C° 0 mm 5 m/S 756 mmHg 38%
    18:00 +32°C° 0 mm 5 m/S 756 mmHg 41%
    19:00 +30°C° 0 mm 5 m/S 756 mmHg 44%
    20:00 +29°C° 0 mm 6 m/S 757 mmHg 47%
    21:00 +29°C° 0 mm 6 m/S 757 mmHg 48%
    22:00 +29°C° 0 mm 7 m/S 757 mmHg 50%
    23:00 +29°C° 0 mm 7 m/S 757 mmHg 51%
    Mehr zeigen